Powrót do katalogu

FENGYUN 1C DEB

LostPO
NORAD 39112·DEBRIS·🇨🇳 China

Wystrzelony May 10, 1999 z Taiyuan Satellite Launch Center

Loading…

Następne Przeloty (najbliższe 24 godziny)

TLE

NieaktualneSource: Space-Track

Epoka: Oct 29, 2022, 03:51 UTC

1 39112U 99025EVZ 22302.16087310  .00005628  00000-0  18964-2 0  9997
2 39112  99.1815 282.2880 0042349 260.8258  98.8134 14.36943104508937

Śledź FENGYUN 1C DEB w czasie rzeczywistym z AllMySat

Download on the App Store